TimeCDT,TemperatureF,Dew PointF,Humidity,Sea Level PressureIn,VisibilityMPH,Wind Direction,Wind SpeedMPH,Gust SpeedMPH,PrecipitationIn,Events,Conditions,WindDirDegrees,DateUTC
12:15 AM,66.2,64.4,94,30.09,10.0,Calm,Calm,-,N/A,,Mostly Cloudy,0,2013-07-04 05:15:00
12:35 AM,66.2,64.4,94,30.09,10.0,East,3.5,-,N/A,,Scattered Clouds,100,2013-07-04 05:35:00
12:55 AM,66.2,64.4,94,30.09,10.0,NE,3.5,-,N/A,,Mostly Cloudy,50,2013-07-04 05:55:00
1:15 AM,66.2,64.4,94,30.09,10.0,East,3.5,-,N/A,,Mostly Cloudy,80,2013-07-04 06:15:00
1:35 AM,66.2,64.4,94,30.09,10.0,Calm,Calm,-,N/A,,Overcast,0,2013-07-04 06:35:00
1:55 AM,66.2,64.4,94,30.08,10.0,Calm,Calm,-,N/A,,Scattered Clouds,0,2013-07-04 06:55:00
2:15 AM,66.2,64.4,94,30.07,9.0,NE,3.5,-,N/A,,Clear,40,2013-07-04 07:15:00
2:35 AM,66.2,64.4,94,30.07,10.0,Calm,Calm,-,N/A,,Clear,0,2013-07-04 07:35:00
2:55 AM,66.2,64.4,94,30.07,10.0,Calm,Calm,-,N/A,,Clear,0,2013-07-04 07:55:00
3:15 AM,64.4,64.4,100,30.06,8.0,Calm,Calm,-,N/A,,Partly Cloudy,0,2013-07-04 08:15:00
3:35 AM,64.4,64.4,100,30.06,8.0,ESE,3.5,-,N/A,,Clear,110,2013-07-04 08:35:00
3:55 AM,64.4,64.4,100,30.06,8.0,Calm,Calm,-,N/A,,Clear,0,2013-07-04 08:55:00
4:15 AM,64.4,64.4,100,30.06,7.0,Calm,Calm,-,N/A,,Clear,0,2013-07-04 09:15:00
4:35 AM,64.4,64.4,100,30.06,6.0,SE,3.5,-,N/A,,Mostly Cloudy,130,2013-07-04 09:35:00
4:55 AM,64.4,64.4,100,30.06,8.0,Calm,Calm,-,N/A,,Mostly Cloudy,0,2013-07-04 09:55:00
5:15 AM,64.4,64.4,100,30.07,6.0,Calm,Calm,-,N/A,,Partly Cloudy,0,2013-07-04 10:15:00
5:35 AM,64.4,64.4,100,30.07,5.0,Calm,Calm,-,N/A,,Clear,0,2013-07-04 10:35:00
5:55 AM,64.4,64.4,100,30.07,3.0,Calm,Calm,-,N/A,,Clear,0,2013-07-04 10:55:00
6:15 AM,64.4,64.4,100,30.08,3.0,Calm,Calm,-,N/A,,Clear,0,2013-07-04 11:15:00
6:35 AM,64.4,64.4,100,30.08,3.0,Calm,Calm,-,N/A,,Clear,0,2013-07-04 11:35:00
6:55 AM,64.4,64.4,100,30.08,3.0,Calm,Calm,-,N/A,,Partly Cloudy,0,2013-07-04 11:55:00
7:15 AM,66.2,66.2,100,30.09,5.0,Calm,Calm,-,N/A,,Mostly Cloudy,0,2013-07-04 12:15:00
7:35 AM,66.2,66.2,100,30.08,6.0,Calm,Calm,-,N/A,,Mostly Cloudy,0,2013-07-04 12:35:00
7:55 AM,68.0,68.0,100,30.08,7.0,Calm,Calm,-,N/A,,Mostly Cloudy,0,2013-07-04 12:55:00
8:15 AM,68.0,68.0,100,30.09,10.0,ESE,3.5,-,N/A,,Scattered Clouds,120,2013-07-04 13:15:00
8:35 AM,69.8,68.0,94,30.09,10.0,Calm,Calm,-,N/A,,Clear,0,2013-07-04 13:35:00
8:55 AM,71.6,68.0,88,30.09,10.0,ESE,3.5,-,N/A,,Partly Cloudy,120,2013-07-04 13:55:00
9:15 AM,71.6,68.0,88,30.09,10.0,SE,4.6,-,N/A,,Partly Cloudy,140,2013-07-04 14:15:00
9:35 AM,73.4,69.8,88,30.09,10.0,ENE,5.8,-,N/A,,Mostly Cloudy,70,2013-07-04 14:35:00
9:55 AM,75.2,68.0,78,30.09,10.0,East,5.8,-,N/A,,Mostly Cloudy,100,2013-07-04 14:55:00
10:15 AM,75.2,68.0,78,30.08,10.0,ENE,5.8,-,N/A,,Mostly Cloudy,60,2013-07-04 15:15:00
10:35 AM,75.2,68.0,78,30.09,10.0,East,5.8,-,N/A,,Scattered Clouds,80,2013-07-04 15:35:00
10:55 AM,75.2,68.0,78,30.09,10.0,East,9.2,-,N/A,,Partly Cloudy,80,2013-07-04 15:55:00
11:15 AM,75.2,68.0,78,30.08,10.0,East,9.2,-,N/A,,Partly Cloudy,90,2013-07-04 16:15:00
11:35 AM,75.2,68.0,78,30.09,10.0,East,8.1,-,N/A,,Scattered Clouds,80,2013-07-04 16:35:00
11:55 AM,77.0,68.0,74,30.08,10.0,East,6.9,-,N/A,,Mostly Cloudy,80,2013-07-04 16:55:00
12:15 PM,77.0,68.0,74,30.08,10.0,East,10.4,-,N/A,,Mostly Cloudy,80,2013-07-04 17:15:00
12:35 PM,77.0,68.0,74,30.09,10.0,ESE,9.2,-,N/A,,Mostly Cloudy,110,2013-07-04 17:35:00
12:55 PM,77.0,68.0,74,30.08,10.0,ESE,10.4,-,N/A,,Scattered Clouds,120,2013-07-04 17:55:00
1:15 PM,77.0,68.0,74,30.09,10.0,East,9.2,-,N/A,,Scattered Clouds,90,2013-07-04 18:15:00
1:35 PM,77.0,66.2,69,30.08,10.0,ESE,9.2,-,N/A,,Mostly Cloudy,110,2013-07-04 18:35:00
1:55 PM,77.0,66.2,69,30.07,10.0,East,13.8,-,N/A,,Mostly Cloudy,90,2013-07-04 18:55:00
2:15 PM,77.0,66.2,69,30.06,10.0,East,12.7,17.3,N/A,,Scattered Clouds,100,2013-07-04 19:15:00
2:35 PM,77.0,66.2,69,30.06,10.0,East,12.7,-,N/A,,Scattered Clouds,100,2013-07-04 19:35:00
2:55 PM,77.0,64.4,65,30.06,10.0,East,12.7,-,N/A,,Partly Cloudy,90,2013-07-04 19:55:00
3:15 PM,77.0,66.2,69,30.05,10.0,East,12.7,-,N/A,,Scattered Clouds,80,2013-07-04 20:15:00
3:35 PM,77.0,66.2,69,30.05,10.0,East,13.8,-,N/A,,Scattered Clouds,80,2013-07-04 20:35:00
3:55 PM,75.2,66.2,73,30.04,10.0,East,12.7,18.4,N/A,,Scattered Clouds,80,2013-07-04 20:55:00
4:15 PM,75.2,66.2,73,30.04,10.0,East,11.5,18.4,N/A,,Mostly Cloudy,80,2013-07-04 21:15:00
4:35 PM,75.2,66.2,73,30.03,10.0,East,11.5,-,N/A,,Scattered Clouds,100,2013-07-04 21:35:00
4:55 PM,75.2,66.2,73,30.03,10.0,SE,11.5,17.3,N/A,,Mostly Cloudy,130,2013-07-04 21:55:00
5:15 PM,75.2,66.2,73,30.02,10.0,ESE,6.9,-,N/A,,Partly Cloudy,120,2013-07-04 22:15:00
5:35 PM,75.2,66.2,73,30.03,10.0,ESE,8.1,-,N/A,,Clear,120,2013-07-04 22:35:00
5:55 PM,73.4,66.2,78,30.03,10.0,ESE,9.2,-,N/A,,Scattered Clouds,120,2013-07-04 22:55:00
6:15 PM,73.4,66.2,78,30.03,10.0,ESE,8.1,-,N/A,,Partly Cloudy,120,2013-07-04 23:15:00
6:35 PM,73.4,66.2,78,30.04,10.0,East,9.2,-,N/A,,Scattered Clouds,90,2013-07-04 23:35:00
6:55 PM,73.4,66.2,78,30.04,10.0,East,6.9,-,N/A,,Scattered Clouds,100,2013-07-04 23:55:00
7:15 PM,73.4,66.2,78,30.03,10.0,East,9.2,-,N/A,,Partly Cloudy,90,2013-07-05 00:15:00
7:35 PM,73.4,68.0,83,30.03,10.0,East,9.2,-,N/A,,Scattered Clouds,90,2013-07-05 00:35:00
7:55 PM,71.6,66.2,83,30.03,10.0,East,9.2,-,N/A,,Mostly Cloudy,90,2013-07-05 00:55:00
8:15 PM,71.6,66.2,83,30.03,10.0,East,11.5,-,N/A,,Overcast,100,2013-07-05 01:15:00
8:35 PM,69.8,66.2,88,30.04,10.0,ESE,10.4,-,N/A,,Overcast,110,2013-07-05 01:35:00
8:55 PM,69.8,64.4,83,30.04,10.0,ESE,6.9,-,N/A,,Overcast,110,2013-07-05 01:55:00
9:15 PM,69.8,66.2,88,30.04,10.0,ESE,4.6,-,N/A,,Overcast,110,2013-07-05 02:15:00
9:35 PM,69.8,66.2,88,30.05,10.0,ESE,6.9,-,N/A,,Overcast,110,2013-07-05 02:35:00
9:55 PM,68.0,66.2,94,30.05,10.0,ESE,5.8,-,N/A,,Overcast,110,2013-07-05 02:55:00
10:15 PM,68.0,66.2,94,30.05,10.0,ESE,8.1,-,N/A,,Overcast,110,2013-07-05 03:15:00
10:35 PM,68.0,66.2,94,30.06,10.0,ESE,5.8,-,N/A,,Overcast,120,2013-07-05 03:35:00
10:55 PM,68.0,66.2,94,30.06,9.0,ESE,3.5,-,N/A,,Overcast,110,2013-07-05 03:55:00
11:15 PM,68.0,66.2,94,30.07,10.0,ESE,3.5,-,N/A,,Overcast,120,2013-07-05 04:15:00
11:35 PM,68.0,66.2,94,30.06,10.0,ESE,3.5,-,N/A,,Overcast,120,2013-07-05 04:35:00
11:55 PM,68.0,66.2,94,30.06,10.0,East,4.6,-,N/A,,Overcast,100,2013-07-05 04:55:00